Ambler Airport
PAFM : now visible

Airfield :











YOU CAN JOIN US ON...

 
LOGIN :

Register | Disclaimer

   EN    FR    IT 

 









Legend :    VFR   Marginal VFR   IFR   Intensive IFR   Very Intensive IFR
Visi :
Ceiling :
>= 8 km
>= 3000ft
5 to 8 km
1000 to 3000 ft
1500m to 5 km
500 to 1000 ft
800 to 1500m
200 to 500 ft
< 800m
< 200 ft
Symbols :   Thunderstorms  Fog  Heavy snow  Heavy precipitations  Wind > 20 kt






- Airport Elevation : 334 ft
- IATA code : AFM


PAFM - Ambler

CURRENT METAR :
  • 050156Z AUTO 17005KT 10SM CLR 27/16 A2980 RMK AO2 SLP094 T02720156

EXPIRED METARs :
  • 050056Z AUTO 16007KT 10SM CLR 28/16 A2982 RMK AO2 SLP101 T02780156
  • 042356Z AUTO 17006KT 10SM CLR 27/16 A2984 RMK AO2 SLP108 T02720156 10272 20222 56018

TAF N/A
PAZA FIR / North America



MET'MAP, your aeronautical weather chart ! - Copyright ORBIFLY December 2007 - Disclaimer

ORBIFLY MET'MAP TEAM :

Programming & Development : Alexandra Zaïnal
Concept & original design : Baudouin d'Aumeries
Assistance for programming : Marc-Olivier Méhu
Technical & hardware support : Manuel Goepfert

Contact : metmap@orbifly.com




SOURCES & CREDITS :

   NOAA       Earth
Advisory